Find Starlink 11243

NORAD ID: 60927 Int'l Des: 2024-155 Owner: SPXS Country: US Constellation: starlink operational
LEOCIRCULAR

Live-Position

3D-Globus wird geladen...

Über Starlink 11243

Beschreibung wird geladen...

Nächste Überflüge

Passes for default location (London). Set your location on the main map for personalized predictions.

Höhenverlauf

Loading altitude history...

Zweizeiliger Elementsatz

1 60927U 24155D 26127.92170862 .00008246 00000-0 72880-4 0 9993
2 60927 53.1603 49.3915 0001215 82.9093 277.2063 15.69700270 97702
Epoch: 7. Mai 2026 • Age: 10 hours

Aktueller Status

Höhe 359.8 km
Geschwindigkeit 7.70 km/s
Subsatellitenpunkt 17.31°N, 131.62°W
Startdatum 31. Aug. 2024
Alter 1.6 years
Typ internet

Technische Details

Klassifizierung Payload
Masse 960.00 kg
Trockenmasse 910.00 kg
Gesamtmasse 960.00 kg
Länge 0.30 m
Durchmesser 4.10 m
Spannweite 29.00 m
Form Box + pan
Hersteller SPXS
Bus-Typ Starlink V2MD
Phasenstatus In Orbit
Besitzer/Staat SPXS/US

Most Searched